Location: Moscow Pond
(43.6842°N, 73.2366°W)
Time: 00:31:28
(UTC+00:00)

BlueWalker 3 - Pass Details

Date: 08 November 2025
Orbit: 455 x 462 km, 53.2° (Epoch: 04 December)

Event Time Altitude Azimuth Distance (km) Brightness Sun altitude
Exits shadow 10:05:42 42° 289° (WNW) 672 2.1 -17.0°
Maximum altitude 10:06:46 70° 219° (SW) 493 1.7 -16.8°
Drops below altitude 10° 10:10:27 - 135° (SE) 1,638 5.3 -16.1°
Sets 10:12:29 0° 133° (SE) 2,469 6.4 -15.8°
